| time (UTC) | temp C | wind direction | speed KPH | gust KPH | rain 1hr cm | rain 24hr cm | rain mn cm | humidity % | barometer mb |
| 20260505041504 | 16 | 211 | 0.0 | 1.6 | 0.00 | 0.00 | 0.00 | 53 | 1014.9 |
| 20260505034503 | 17 | 201 | 0.0 | 1.6 | 0.00 | 0.00 | 0.00 | 50 | 1015.0 |
| 20260505033004 | 17 | 203 | 0.0 | 1.6 | 0.00 | 0.00 | 0.00 | 50 | 1015.2 |
| 20260505031503 | 17 | 204 | 0.0 | 0.0 | 0.00 | 0.00 | 0.00 | 49 | 1014.9 |
| 20260505030003 | 17 | 217 | 0.0 | 1.6 | 0.00 | 0.00 | 0.00 | 48 | 1014.9 |
| 20260505024504 | 17 | 212 | 0.0 | 1.6 | 0.00 | 0.00 | 0.00 | 51 | 1015.0 |
| 20260505021504 | 16 | 195 | 0.0 | 0.0 | 0.00 | 0.00 | 0.00 | 60 | 1014.9 |
| 20260505020006 | 16 | 195 | 0.0 | 0.0 | 0.00 | 0.00 | 0.00 | 57 | 1014.8 |
| 20260505014505 | 17 | 195 | 0.0 | 0.0 | 0.00 | 0.00 | 0.00 | 56 | 1014.7 |
| 20260505013004 | 18 | 195 | 0.0 | 0.0 | 0.00 | 0.00 | 0.00 | 54 | 1014.5 |
| 20260505004503 | 19 | 215 | 0.0 | 1.6 | 0.00 | 0.00 | 0.00 | 50 | 1014.0 |
| 20260505003005 | 20 | 215 | 0.0 | 1.6 | 0.00 | 0.00 | 0.00 | 47 | 1013.9 |
| 20260505001504 | 21 | 207 | 0.0 | 1.6 | 0.00 | 0.00 | 0.00 | 46 | 1014.0 |
| 20260504234505 | 23 | 203 | 0.0 | 3.2 | 0.00 | 0.00 | 0.00 | 39 | 1013.7 |
| 20260504233005 | 23 | 207 | 0.0 | 3.2 | 0.00 | 0.00 | 0.00 | 39 | 1013.6 |
| 20260504231505 | 24 | 219 | 1.6 | 6.4 | 0.00 | 0.00 | 0.00 | 37 | 1013.3 |
| 20260504230005 | 24 | 204 | 3.2 | 6.4 | 0.00 | 0.00 | 0.00 | 37 | 1013.3 |
| 20260504224503 | 25 | 162 | 1.6 | 4.8 | 0.00 | 0.00 | 0.00 | 36 | 1013.4 |
| 20260504223005 | 25 | 175 | 1.6 | 4.8 | 0.00 | 0.00 | 0.00 | 36 | 1013.5 |
| 20260504221504 | 25 | 286 | 3.2 | 8.0 | 0.00 | 0.00 | 0.00 | 37 | 1013.6 |
| 20260504213003 | 25 | 226 | 3.2 | 6.4 | 0.00 | 0.00 | 0.00 | 37 | 1013.5 |
| 20260504211503 | 25 | 156 | 3.2 | 8.0 | 0.00 | 0.00 | 0.00 | 38 | 1013.4 |
| 20260504210006 | 25 | 214 | 1.6 | 8.0 | 0.00 | 0.00 | 0.00 | 39 | 1013.5 |
| 20260504200003 | 25 | 224 | 3.2 | 9.7 | 0.00 | 0.00 | 0.00 | 39 | 1013.8 |
| 20260504194503 | 25 | 252 | 3.2 | 14.5 | 0.00 | 0.00 | 0.00 | 38 | 1014.1 |
| 20260504193003 | 24 | 210 | 3.2 | 9.7 | 0.00 | 0.00 | 0.00 | 38 | 1014.2 |
| 20260504191503 | 24 | 288 | 3.2 | 11.3 | 0.00 | 0.00 | 0.00 | 39 | 1014.6 |
| 20260504190003 | 24 | 173 | 3.2 | 12.9 | 0.00 | 0.00 | 0.00 | 38 | 1014.9 |
| 20260504184503 | 23 | 234 | 3.2 | 9.7 | 0.00 | 0.00 | 0.00 | 38 | 1015.1 |
| 20260504181503 | 23 | 281 | 4.8 | 14.5 | 0.00 | 0.00 | 0.00 | 41 | 1015.2 |
| 20260504180004 | 23 | 233 | 3.2 | 11.3 | 0.00 | 0.00 | 0.00 | 39 | 1015.2 |
| 20260504174504 | 22 | 241 | 3.2 | 12.9 | 0.00 | 0.00 | 0.00 | 38 | 1015.4 |
| 20260504173003 | 22 | 219 | 3.2 | 11.3 | 0.00 | 0.00 | 0.00 | 40 | 1015.5 |
| 20260504171503 | 22 | 22 | 3.2 | 14.5 | 0.00 | 0.00 | 0.00 | 40 | 1015.8 |
| 20260504081503 | 2 | 194 | 0.0 | 0.0 | 0.00 | 0.00 | 0.00 | 90 | 1017.6 |